Year,Month,Day,Hour,Minute,Value (Times are PST for temperature in C)
2015,05,28,00,00,13.20
2015,05,28,00,01,13.20
2015,05,28,00,02,13.20
2015,05,28,00,03,13.20
2015,05,28,00,04,13.20
2015,05,28,00,05,13.10
2015,05,28,00,06,13.10
2015,05,28,00,07,13.10
2015,05,28,00,08,13.10
2015,05,28,00,09,13.10
2015,05,28,00,10,13.10
2015,05,28,00,11,13.10
2015,05,28,00,12,13.10
2015,05,28,00,13,13.10
2015,05,28,00,14,13.10
2015,05,28,00,15,13.00
2015,05,28,00,16,13.00
2015,05,28,00,17,13.00
2015,05,28,00,18,12.90
2015,05,28,00,19,12.90
2015,05,28,00,20,12.90
2015,05,28,00,21,12.90
2015,05,28,00,22,12.90
2015,05,28,00,23,12.90
2015,05,28,00,24,12.90
2015,05,28,00,25,12.90
2015,05,28,00,26,12.90
2015,05,28,00,27,12.80
2015,05,28,00,28,12.80
2015,05,28,00,29,12.80
2015,05,28,00,30,12.80
2015,05,28,00,31,12.80
2015,05,28,00,32,12.80
2015,05,28,00,33,12.80
2015,05,28,00,34,12.80
2015,05,28,00,35,12.80
2015,05,28,00,36,12.80
2015,05,28,00,37,12.80
2015,05,28,00,38,12.80
2015,05,28,00,39,12.80
2015,05,28,00,40,12.80
2015,05,28,00,41,12.70
2015,05,28,00,42,12.70
2015,05,28,00,43,12.70
2015,05,28,00,44,12.70
2015,05,28,00,45,12.70
2015,05,28,00,46,12.70
2015,05,28,00,47,12.70
2015,05,28,00,48,12.70
2015,05,28,00,49,12.70
2015,05,28,00,50,12.70
2015,05,28,00,51,12.60
2015,05,28,00,52,12.60
2015,05,28,00,53,12.60
2015,05,28,00,54,12.60
2015,05,28,00,55,12.60
2015,05,28,00,56,12.60
2015,05,28,00,57,12.60
2015,05,28,00,58,12.60
2015,05,28,00,59,12.60
2015,05,28,01,00,12.60
2015,05,28,01,01,12.60
2015,05,28,01,02,12.60
2015,05,28,01,03,12.60
2015,05,28,01,04,12.60
2015,05,28,01,05,12.60
2015,05,28,01,06,12.60
2015,05,28,01,07,12.60
2015,05,28,01,08,12.60
2015,05,28,01,09,12.60
2015,05,28,01,10,12.60
2015,05,28,01,11,12.60
2015,05,28,01,12,12.60
2015,05,28,01,13,12.60
2015,05,28,01,14,12.60
2015,05,28,01,15,12.60
2015,05,28,01,16,12.60
2015,05,28,01,17,12.60
2015,05,28,01,18,12.60
2015,05,28,01,19,12.60
2015,05,28,01,20,12.50
2015,05,28,01,21,12.60
2015,05,28,01,22,12.50
2015,05,28,01,23,12.50
2015,05,28,01,24,12.50
2015,05,28,01,25,12.50
2015,05,28,01,26,12.50
2015,05,28,01,27,12.50
2015,05,28,01,28,12.50
2015,05,28,01,29,12.50
2015,05,28,01,30,12.50
2015,05,28,01,31,12.50
2015,05,28,01,32,12.50
2015,05,28,01,33,12.50
2015,05,28,01,34,12.50
2015,05,28,01,35,12.50
2015,05,28,01,36,12.50
2015,05,28,01,37,12.50
2015,05,28,01,38,12.50
2015,05,28,01,39,12.50
2015,05,28,01,40,12.50
2015,05,28,01,41,12.50
2015,05,28,01,42,12.50
2015,05,28,01,43,12.50
2015,05,28,01,44,12.50
2015,05,28,01,49,12.50
2015,05,28,01,50,12.50
2015,05,28,01,51,12.50
2015,05,28,01,52,12.50
2015,05,28,01,53,12.50
2015,05,28,01,54,12.60
2015,05,28,01,55,12.60
2015,05,28,01,56,12.60
2015,05,28,01,57,12.60
2015,05,28,01,58,12.60
2015,05,28,01,59,12.70
2015,05,28,02,00,12.70
2015,05,28,02,01,12.70
2015,05,28,02,02,12.70
2015,05,28,02,03,12.70
2015,05,28,02,04,12.80
2015,05,28,02,05,12.80
2015,05,28,02,06,12.80
2015,05,28,02,07,12.80
2015,05,28,02,08,12.80
2015,05,28,02,09,12.80
2015,05,28,02,10,12.80
2015,05,28,02,11,12.80
2015,05,28,02,12,12.80
2015,05,28,02,13,12.80
2015,05,28,02,14,12.80
2015,05,28,02,15,12.80
2015,05,28,02,16,12.80
2015,05,28,02,17,12.70
2015,05,28,02,18,12.70
2015,05,28,02,19,12.70
2015,05,28,02,20,12.70
2015,05,28,02,21,12.70
2015,05,28,02,22,12.70
2015,05,28,02,23,12.70
2015,05,28,02,24,12.70
2015,05,28,02,25,12.60
2015,05,28,02,26,12.60
2015,05,28,02,27,12.60
2015,05,28,02,28,12.60
2015,05,28,02,29,12.60
2015,05,28,02,30,12.60
2015,05,28,02,31,12.60
2015,05,28,02,32,12.60
2015,05,28,02,33,12.60
2015,05,28,02,34,12.60
2015,05,28,02,35,12.60
2015,05,28,02,36,12.60
2015,05,28,02,37,12.60
2015,05,28,02,38,12.60
2015,05,28,02,39,12.60
2015,05,28,02,40,12.60
2015,05,28,02,41,12.60
2015,05,28,02,42,12.60
2015,05,28,02,43,12.60
2015,05,28,02,44,12.60
2015,05,28,02,45,12.60
2015,05,28,02,46,12.60
2015,05,28,02,47,12.60
2015,05,28,02,48,12.60
2015,05,28,02,49,12.60
2015,05,28,02,50,12.60
2015,05,28,02,51,12.60
2015,05,28,02,52,12.60
2015,05,28,02,53,12.60
2015,05,28,02,54,12.60
2015,05,28,02,55,12.60
2015,05,28,02,56,12.60
2015,05,28,02,57,12.60
2015,05,28,02,58,12.60
2015,05,28,02,59,12.60
2015,05,28,03,00,12.60
2015,05,28,03,01,12.60
2015,05,28,03,02,12.60
2015,05,28,03,03,12.60
2015,05,28,03,04,12.70
2015,05,28,03,05,12.70
2015,05,28,03,06,12.70
2015,05,28,03,07,12.70
2015,05,28,03,08,12.80
2015,05,28,03,09,12.80
2015,05,28,03,10,12.80
2015,05,28,03,11,12.80
2015,05,28,03,12,12.90
2015,05,28,03,13,12.90
2015,05,28,03,14,12.90
2015,05,28,03,15,12.90
2015,05,28,03,16,12.90
2015,05,28,03,17,12.90
2015,05,28,03,18,12.90
2015,05,28,03,19,12.90
2015,05,28,03,20,12.90
2015,05,28,03,21,12.90
2015,05,28,03,22,12.90
2015,05,28,03,23,12.90
2015,05,28,03,24,12.90
2015,05,28,03,25,12.90
2015,05,28,03,26,12.90
2015,05,28,03,27,13.00
2015,05,28,03,28,13.00
2015,05,28,03,29,13.00
2015,05,28,03,30,13.00
2015,05,28,03,31,13.00
2015,05,28,03,32,13.00
2015,05,28,03,33,13.10
2015,05,28,03,34,13.10
2015,05,28,03,35,13.10
2015,05,28,03,36,13.10
2015,05,28,03,37,13.10
2015,05,28,03,38,13.10
2015,05,28,03,39,13.10
2015,05,28,03,40,13.10
2015,05,28,03,41,13.10
2015,05,28,03,42,13.10
2015,05,28,03,43,13.00
2015,05,28,03,44,13.00
2015,05,28,03,45,13.00
2015,05,28,03,46,13.00
2015,05,28,03,47,13.00
2015,05,28,03,48,13.00
2015,05,28,03,49,13.00
2015,05,28,03,50,12.90
2015,05,28,03,51,13.00
2015,05,28,03,52,13.00
2015,05,28,03,53,13.10
2015,05,28,03,54,13.10
2015,05,28,03,55,13.20
2015,05,28,03,56,13.20
2015,05,28,03,57,13.30
2015,05,28,03,58,13.30
2015,05,28,03,59,13.30
2015,05,28,04,00,13.30
2015,05,28,04,01,13.30
2015,05,28,04,02,13.40
2015,05,28,04,03,13.40
2015,05,28,04,04,13.40
2015,05,28,04,05,13.40
2015,05,28,04,06,13.40
2015,05,28,04,07,13.40
2015,05,28,04,08,13.40
2015,05,28,04,09,13.50
2015,05,28,04,10,13.50
2015,05,28,04,11,13.60
2015,05,28,04,12,13.60
2015,05,28,04,13,13.60
2015,05,28,04,14,13.60
2015,05,28,04,15,13.60
2015,05,28,04,16,13.60
2015,05,28,04,17,13.60
2015,05,28,04,18,13.60
2015,05,28,04,19,13.60
2015,05,28,04,20,13.60
2015,05,28,04,21,13.60
2015,05,28,04,22,13.60
2015,05,28,04,23,13.60
2015,05,28,04,24,13.60
2015,05,28,04,25,13.60
2015,05,28,04,26,13.60
2015,05,28,04,27,13.60
2015,05,28,04,28,13.60
2015,05,28,04,29,13.60
2015,05,28,04,30,13.60
2015,05,28,04,31,13.60
2015,05,28,04,32,13.60
2015,05,28,04,33,13.60
2015,05,28,04,34,13.60
2015,05,28,04,35,13.60
2015,05,28,04,36,13.60
2015,05,28,04,37,13.50
2015,05,28,04,38,13.50
2015,05,28,04,39,13.50
2015,05,28,04,40,13.40
2015,05,28,04,41,13.40
2015,05,28,04,42,13.40
2015,05,28,04,43,13.40
2015,05,28,04,44,13.40
2015,05,28,04,45,13.30
2015,05,28,04,46,13.30
2015,05,28,04,47,13.30
2015,05,28,04,48,13.20
2015,05,28,04,49,13.20
2015,05,28,04,50,13.20
2015,05,28,04,51,13.10
2015,05,28,04,52,13.10
2015,05,28,04,53,13.10
2015,05,28,04,54,13.10
2015,05,28,04,55,13.00
2015,05,28,04,56,13.00
2015,05,28,04,57,12.90
2015,05,28,04,58,12.90
2015,05,28,04,59,12.90
2015,05,28,05,00,12.90
2015,05,28,05,01,12.80
2015,05,28,05,02,12.80
2015,05,28,05,03,12.80
2015,05,28,05,04,12.80
2015,05,28,05,05,12.80
2015,05,28,05,06,12.80
2015,05,28,05,07,12.80
2015,05,28,05,08,12.80
2015,05,28,05,09,12.80
2015,05,28,05,10,12.80
2015,05,28,05,11,12.80
2015,05,28,05,12,12.80
2015,05,28,05,13,12.80
2015,05,28,05,14,12.80
2015,05,28,05,15,12.80
2015,05,28,05,16,12.80
2015,05,28,05,17,12.80
2015,05,28,05,18,12.80
2015,05,28,05,19,12.80
2015,05,28,05,20,12.80
2015,05,28,05,21,12.80
2015,05,28,05,22,12.80
2015,05,28,05,23,12.80
2015,05,28,05,24,12.80
2015,05,28,05,25,12.70
2015,05,28,05,26,12.70
2015,05,28,05,27,12.70
2015,05,28,05,28,12.70
2015,05,28,05,29,12.70
2015,05,28,05,30,12.70
2015,05,28,05,31,12.70
2015,05,28,05,32,12.70
2015,05,28,05,33,12.80
2015,05,28,05,34,12.80
2015,05,28,05,35,12.80
2015,05,28,05,36,12.80
2015,05,28,05,37,12.80
2015,05,28,05,38,12.80
2015,05,28,05,39,12.90
2015,05,28,05,40,12.90
2015,05,28,05,41,12.90
2015,05,28,05,42,12.90
2015,05,28,05,43,12.90
2015,05,28,05,44,12.90
2015,05,28,05,45,12.90
2015,05,28,05,46,12.90
2015,05,28,05,47,12.90
2015,05,28,05,48,12.90
2015,05,28,05,49,12.80
2015,05,28,05,50,12.80
2015,05,28,05,51,12.80
2015,05,28,05,52,12.80
2015,05,28,05,53,12.80
2015,05,28,05,54,12.90
2015,05,28,05,55,12.90
2015,05,28,05,56,12.90
2015,05,28,05,57,12.90
2015,05,28,05,58,12.90
2015,05,28,05,59,12.90
2015,05,28,06,00,12.90
2015,05,28,06,01,12.90
2015,05,28,06,02,12.90
2015,05,28,06,03,12.90
2015,05,28,06,04,12.90
2015,05,28,06,05,12.90
2015,05,28,06,06,12.90
2015,05,28,06,07,12.90
2015,05,28,06,08,12.90
2015,05,28,06,09,12.90
2015,05,28,06,10,12.80
2015,05,28,06,11,12.80
2015,05,28,06,12,12.80
2015,05,28,06,13,12.80
2015,05,28,06,14,12.80
2015,05,28,06,15,12.80
2015,05,28,06,16,12.80
2015,05,28,06,17,12.80
2015,05,28,06,18,12.70
2015,05,28,06,19,12.70
2015,05,28,06,20,12.70
2015,05,28,06,21,12.70
2015,05,28,06,22,12.70
2015,05,28,06,23,12.70
2015,05,28,06,24,12.70
2015,05,28,06,25,12.70
2015,05,28,06,26,12.70
2015,05,28,06,27,12.70
2015,05,28,06,28,12.80
2015,05,28,06,29,12.80
2015,05,28,06,30,12.80
2015,05,28,06,31,12.80
2015,05,28,06,32,12.80
2015,05,28,06,33,12.80
2015,05,28,06,34,12.80
2015,05,28,06,35,12.80
2015,05,28,06,36,12.80
2015,05,28,06,37,12.80
2015,05,28,06,38,12.80
2015,05,28,06,39,12.90
2015,05,28,06,40,12.90
2015,05,28,06,41,12.90
2015,05,28,06,42,12.90
2015,05,28,06,43,12.90
2015,05,28,06,44,12.90
2015,05,28,06,45,12.90
2015,05,28,06,46,12.90
2015,05,28,06,47,12.90
2015,05,28,06,48,12.90
2015,05,28,06,49,13.00
2015,05,28,06,50,13.00
2015,05,28,06,51,13.00
2015,05,28,06,52,13.10
2015,05,28,06,53,13.10
2015,05,28,06,54,13.10
2015,05,28,06,55,13.10
2015,05,28,06,56,13.10
2015,05,28,06,57,13.10
2015,05,28,06,58,13.20
2015,05,28,06,59,13.20
2015,05,28,07,00,13.20
2015,05,28,07,01,13.20
2015,05,28,07,02,13.20
2015,05,28,07,03,13.30
2015,05,28,07,04,13.40
2015,05,28,07,05,13.40
2015,05,28,07,06,13.50
2015,05,28,07,07,13.50
2015,05,28,07,08,13.60
2015,05,28,07,09,13.60
2015,05,28,07,10,13.70
2015,05,28,07,11,13.80
2015,05,28,07,12,13.80
2015,05,28,07,13,13.90
2015,05,28,07,14,13.90
2015,05,28,07,15,13.90
2015,05,28,07,16,14.00
2015,05,28,07,17,14.00
2015,05,28,07,18,14.10
2015,05,28,07,19,14.10
2015,05,28,07,20,14.10
2015,05,28,07,21,14.20
2015,05,28,07,22,14.20
2015,05,28,07,23,14.20
2015,05,28,07,24,14.20
2015,05,28,07,25,14.20
2015,05,28,07,26,14.30
2015,05,28,07,27,14.30
2015,05,28,07,28,14.30
2015,05,28,07,29,14.30
2015,05,28,07,30,14.30
2015,05,28,07,31,14.40
2015,05,28,07,32,14.40
2015,05,28,07,33,14.30
2015,05,28,07,34,14.30
2015,05,28,07,35,14.30
2015,05,28,07,36,14.30
2015,05,28,07,37,14.30
2015,05,28,07,38,14.40
2015,05,28,07,39,14.40
2015,05,28,07,40,14.50
2015,05,28,07,41,14.50
2015,05,28,07,42,14.60
2015,05,28,07,43,14.60
2015,05,28,07,44,14.60
2015,05,28,07,45,14.70
2015,05,28,07,46,14.70
2015,05,28,07,47,14.70
2015,05,28,07,48,14.70
2015,05,28,07,49,14.70
2015,05,28,07,50,14.70
2015,05,28,07,51,14.70
2015,05,28,07,52,14.70
2015,05,28,07,53,14.70
2015,05,28,07,54,14.70
2015,05,28,07,55,14.70
2015,05,28,07,56,14.70
2015,05,28,07,57,14.70
2015,05,28,07,58,14.70
2015,05,28,07,59,14.70
2015,05,28,08,00,14.80
2015,05,28,08,01,14.80
2015,05,28,08,02,14.80
2015,05,28,08,03,14.80
2015,05,28,08,04,14.80
2015,05,28,08,05,14.80
2015,05,28,08,06,14.80
2015,05,28,08,07,14.80
2015,05,28,08,08,14.80
2015,05,28,08,09,14.80
2015,05,28,08,10,14.80
2015,05,28,08,11,14.80
2015,05,28,08,12,14.90
2015,05,28,08,13,15.00
2015,05,28,08,14,15.00
2015,05,28,08,15,15.00
2015,05,28,08,16,15.00
2015,05,28,08,17,15.00
2015,05,28,08,18,15.00
2015,05,28,08,19,15.00
2015,05,28,08,20,15.00
2015,05,28,08,21,15.00
2015,05,28,08,22,15.00
2015,05,28,08,23,15.00
2015,05,28,08,24,15.00
2015,05,28,08,25,15.00
2015,05,28,08,26,15.00
2015,05,28,08,27,15.00
2015,05,28,08,28,15.00
2015,05,28,08,29,15.00
2015,05,28,08,30,15.10
2015,05,28,08,31,15.20
2015,05,28,08,32,15.20
2015,05,28,08,33,15.30
2015,05,28,08,34,15.30
2015,05,28,08,35,15.30
2015,05,28,08,36,15.40
2015,05,28,08,37,15.40
2015,05,28,08,38,15.40
2015,05,28,08,39,15.40
2015,05,28,08,40,15.50
2015,05,28,08,41,15.50
2015,05,28,08,42,15.50
2015,05,28,08,43,15.60
2015,05,28,08,44,15.60
2015,05,28,08,45,15.60
2015,05,28,08,46,15.70
2015,05,28,08,47,15.70
2015,05,28,08,48,15.60
2015,05,28,08,49,15.60
2015,05,28,08,50,15.60
2015,05,28,08,51,15.60
2015,05,28,08,52,15.60
2015,05,28,08,53,15.60
2015,05,28,08,54,15.60
2015,05,28,08,55,15.60
2015,05,28,08,56,15.60
2015,05,28,08,57,15.60
2015,05,28,08,58,15.60
2015,05,28,08,59,15.70
2015,05,28,09,00,15.70
2015,05,28,09,01,15.70
2015,05,28,09,02,15.80
2015,05,28,09,03,15.80
2015,05,28,09,04,15.80
2015,05,28,09,05,15.80
2015,05,28,09,06,15.80
2015,05,28,09,07,15.80
2015,05,28,09,08,15.80
2015,05,28,09,09,15.80
2015,05,28,09,10,15.80
2015,05,28,09,11,15.80
2015,05,28,09,12,15.80
2015,05,28,09,13,15.90
2015,05,28,09,14,15.90
2015,05,28,09,15,15.90
2015,05,28,09,16,15.90
2015,05,28,09,17,15.90
2015,05,28,09,18,16.00
2015,05,28,09,19,16.00
2015,05,28,09,20,16.10
2015,05,28,09,21,16.10
2015,05,28,09,22,16.10
2015,05,28,09,23,16.20
2015,05,28,09,24,16.20
2015,05,28,09,25,16.30
2015,05,28,09,26,16.30
2015,05,28,09,27,16.40
2015,05,28,09,28,16.40
2015,05,28,09,29,16.50
2015,05,28,09,30,16.60
2015,05,28,09,31,16.60
2015,05,28,09,32,16.70
2015,05,28,09,33,16.80
2015,05,28,09,34,16.90
2015,05,28,09,35,16.90
2015,05,28,09,36,17.00
2015,05,28,09,37,17.00
2015,05,28,09,38,17.10
2015,05,28,09,39,17.10
2015,05,28,09,40,17.20
2015,05,28,09,41,17.20
2015,05,28,09,42,17.30
2015,05,28,09,43,17.30
2015,05,28,09,44,17.40
2015,05,28,09,45,17.50
2015,05,28,09,46,17.50
2015,05,28,09,47,17.60
2015,05,28,09,48,17.60
2015,05,28,09,49,17.60
2015,05,28,09,50,17.70
2015,05,28,09,51,17.70
2015,05,28,09,52,17.70
2015,05,28,09,53,17.70
2015,05,28,09,54,17.70
2015,05,28,09,55,17.70
2015,05,28,09,56,17.70
2015,05,28,09,57,17.70
2015,05,28,09,58,17.70
2015,05,28,09,59,17.70
2015,05,28,10,00,17.70
2015,05,28,10,01,17.70
2015,05,28,10,02,17.70
2015,05,28,10,03,17.70
2015,05,28,10,04,17.70
2015,05,28,10,05,17.70
2015,05,28,10,06,17.70
2015,05,28,10,07,17.80
2015,05,28,10,08,17.80
2015,05,28,10,09,17.80
2015,05,28,10,10,17.90
2015,05,28,10,11,17.90
2015,05,28,10,12,17.90
2015,05,28,10,13,17.90
2015,05,28,10,14,18.00
2015,05,28,10,15,18.00
2015,05,28,10,16,18.00
2015,05,28,10,17,18.10
2015,05,28,10,18,18.10
2015,05,28,10,19,18.10
2015,05,28,10,20,18.10
2015,05,28,10,21,18.10
2015,05,28,10,22,18.10
2015,05,28,10,23,18.10
2015,05,28,10,24,18.10
2015,05,28,10,25,18.10
2015,05,28,10,26,18.10
2015,05,28,10,27,18.10
2015,05,28,10,28,18.10
2015,05,28,10,29,18.10
2015,05,28,10,30,18.10
2015,05,28,10,31,18.20
2015,05,28,10,32,18.20
2015,05,28,10,33,18.20
2015,05,28,10,34,18.20
2015,05,28,10,35,18.30
2015,05,28,10,36,18.30
2015,05,28,10,37,18.30
2015,05,28,10,38,18.40
2015,05,28,10,39,18.40
2015,05,28,10,40,18.50
2015,05,28,10,41,18.50
2015,05,28,10,42,18.60
2015,05,28,10,43,18.60
2015,05,28,10,44,18.60
2015,05,28,10,45,18.60
2015,05,28,10,46,18.60
2015,05,28,10,47,18.70
2015,05,28,10,48,18.60
2015,05,28,10,49,18.60
2015,05,28,10,50,18.70
2015,05,28,10,51,18.70
2015,05,28,10,52,18.80
2015,05,28,10,53,18.80
2015,05,28,10,54,18.90
2015,05,28,10,55,18.90
2015,05,28,10,56,18.90
2015,05,28,10,57,18.90
2015,05,28,10,58,18.80
2015,05,28,10,59,18.80
2015,05,28,11,00,18.60
2015,05,28,11,01,18.50
2015,05,28,11,02,18.50
2015,05,28,11,03,18.50
2015,05,28,11,04,18.50
2015,05,28,11,05,18.60
2015,05,28,11,06,18.70
2015,05,28,11,07,18.70
2015,05,28,11,08,18.80
2015,05,28,11,09,18.80
2015,05,28,11,10,18.80
2015,05,28,11,11,18.80
2015,05,28,11,12,18.80
2015,05,28,11,13,18.70
2015,05,28,11,14,18.70
2015,05,28,11,15,18.70
2015,05,28,11,16,18.60
2015,05,28,11,17,18.50
2015,05,28,11,18,18.40
2015,05,28,11,19,18.50
2015,05,28,11,20,18.50
2015,05,28,11,21,18.60
2015,05,28,11,22,18.60
2015,05,28,11,23,18.70
2015,05,28,11,24,18.80
2015,05,28,11,25,18.80
2015,05,28,11,26,18.80
2015,05,28,11,27,18.90
2015,05,28,11,28,18.90
2015,05,28,11,29,18.90
2015,05,28,11,30,19.00
2015,05,28,11,31,19.00
2015,05,28,11,32,19.10
2015,05,28,11,33,19.20
2015,05,28,11,34,19.20
2015,05,28,11,35,19.30
2015,05,28,11,36,19.30
2015,05,28,11,37,19.30
2015,05,28,11,38,19.30
2015,05,28,11,39,19.40
2015,05,28,11,40,19.40
2015,05,28,11,41,19.40
2015,05,28,11,42,19.40
2015,05,28,11,43,19.40
2015,05,28,11,44,19.30
2015,05,28,11,45,19.30
2015,05,28,11,46,19.20
2015,05,28,11,47,19.20
2015,05,28,11,48,19.20
2015,05,28,11,49,19.20
2015,05,28,11,50,19.30
2015,05,28,11,51,19.30
2015,05,28,11,52,19.50
2015,05,28,11,53,19.50
2015,05,28,11,54,19.50
2015,05,28,11,55,19.40
2015,05,28,11,56,19.40
2015,05,28,11,57,19.30
2015,05,28,11,58,19.30
2015,05,28,11,59,19.30
2015,05,28,12,00,19.30
2015,05,28,12,01,19.40
2015,05,28,12,02,19.40
2015,05,28,12,03,19.50
2015,05,28,12,04,19.60
2015,05,28,12,05,19.60
2015,05,28,12,06,19.70
2015,05,28,12,07,19.80
2015,05,28,12,08,19.90
2015,05,28,12,09,19.90
2015,05,28,12,10,19.90
2015,05,28,12,11,20.00
2015,05,28,12,12,20.00
2015,05,28,12,13,20.00
2015,05,28,12,14,20.00
2015,05,28,12,15,20.00
2015,05,28,12,16,20.00
2015,05,28,12,17,20.00
2015,05,28,12,18,20.00
2015,05,28,12,19,20.00
2015,05,28,12,20,19.90
2015,05,28,12,21,20.00
2015,05,28,12,22,20.00
2015,05,28,12,23,20.00
2015,05,28,12,24,20.00
2015,05,28,12,25,20.10
2015,05,28,12,26,20.10
2015,05,28,12,27,20.10
2015,05,28,12,28,20.10
2015,05,28,12,29,20.00
2015,05,28,12,30,20.00
2015,05,28,12,31,20.00
2015,05,28,12,32,20.00
2015,05,28,12,33,20.00
2015,05,28,12,34,20.00
2015,05,28,12,35,20.00
2015,05,28,12,36,20.00
2015,05,28,12,37,20.00
2015,05,28,12,38,19.90
2015,05,28,12,39,19.90
2015,05,28,12,40,19.90
2015,05,28,12,41,19.90
2015,05,28,12,42,19.90
2015,05,28,12,43,20.00
2015,05,28,12,44,20.00
2015,05,28,12,45,20.00
2015,05,28,12,46,20.10
2015,05,28,12,47,20.10
2015,05,28,12,48,20.10
2015,05,28,12,49,20.10
2015,05,28,12,50,20.20
2015,05,28,12,51,20.20
2015,05,28,12,52,20.20
2015,05,28,12,53,20.20
2015,05,28,12,54,20.30
2015,05,28,12,55,20.30
2015,05,28,12,56,20.40
2015,05,28,12,57,20.40
2015,05,28,12,58,20.40
2015,05,28,12,59,20.40
2015,05,28,13,00,20.40
2015,05,28,13,01,20.30
2015,05,28,13,02,20.30
2015,05,28,13,03,20.30
2015,05,28,13,04,20.30
2015,05,28,13,05,20.30
2015,05,28,13,06,20.40
2015,05,28,13,07,20.40
2015,05,28,13,08,20.50
2015,05,28,13,09,20.50
2015,05,28,13,10,20.50
2015,05,28,13,11,20.40
2015,05,28,13,12,20.50
2015,05,28,13,13,20.50
2015,05,28,13,14,20.60
2015,05,28,13,15,20.60
2015,05,28,13,16,20.70
2015,05,28,13,17,20.70
2015,05,28,13,18,20.60
2015,05,28,13,19,20.50
2015,05,28,13,20,20.40
2015,05,28,13,21,20.20
2015,05,28,13,22,20.00
2015,05,28,13,23,19.90
2015,05,28,13,24,19.80
2015,05,28,13,25,19.80
2015,05,28,13,26,19.70
2015,05,28,13,27,19.70
2015,05,28,13,28,19.70
2015,05,28,13,29,19.70
2015,05,28,13,30,19.80
2015,05,28,13,31,19.90
2015,05,28,13,32,20.00
2015,05,28,13,33,20.10
2015,05,28,13,34,20.20
2015,05,28,13,35,20.20
2015,05,28,13,36,20.30
2015,05,28,13,37,20.40
2015,05,28,13,38,20.50
2015,05,28,13,39,20.60
2015,05,28,13,40,20.60
2015,05,28,13,41,20.70
2015,05,28,13,42,20.70
2015,05,28,13,43,20.70
2015,05,28,13,44,20.70
2015,05,28,13,45,20.70
2015,05,28,13,46,20.80
2015,05,28,13,47,20.90
2015,05,28,13,48,20.90
2015,05,28,13,49,21.00
2015,05,28,13,50,21.00
2015,05,28,13,51,21.10
2015,05,28,13,52,21.20
2015,05,28,13,53,21.20
2015,05,28,13,54,21.20
2015,05,28,13,55,21.30
2015,05,28,13,56,21.30
2015,05,28,13,57,21.30
2015,05,28,13,58,21.20
2015,05,28,13,59,21.20
2015,05,28,14,00,21.10
2015,05,28,14,01,21.10
2015,05,28,14,02,21.10
2015,05,28,14,03,21.10
2015,05,28,14,04,21.10
2015,05,28,14,05,21.20
2015,05,28,14,06,21.30
2015,05,28,14,07,21.30
2015,05,28,14,08,21.20
2015,05,28,14,09,21.20
2015,05,28,14,10,21.20
2015,05,28,14,11,21.20
2015,05,28,14,12,21.30
2015,05,28,14,13,21.30
2015,05,28,14,14,21.40
2015,05,28,14,15,21.40
2015,05,28,14,16,21.50
2015,05,28,14,17,21.60
2015,05,28,14,18,21.70
2015,05,28,14,19,21.80
2015,05,28,14,20,21.80
2015,05,28,14,21,21.90
2015,05,28,14,22,21.90
2015,05,28,14,23,22.00
2015,05,28,14,24,22.10
2015,05,28,14,25,22.00
2015,05,28,14,26,21.90
2015,05,28,14,27,21.90
2015,05,28,14,28,21.90
2015,05,28,14,29,22.00
2015,05,28,14,30,22.00
2015,05,28,14,31,22.00
2015,05,28,14,32,22.00
2015,05,28,14,33,21.90
2015,05,28,14,34,21.90
2015,05,28,14,35,21.90
2015,05,28,14,36,21.80
2015,05,28,14,37,21.60
2015,05,28,14,38,21.60
2015,05,28,14,39,21.50
2015,05,28,14,40,21.60
2015,05,28,14,41,21.60
2015,05,28,14,42,21.60
2015,05,28,14,43,21.50
2015,05,28,14,44,21.40
2015,05,28,14,45,21.40
2015,05,28,14,46,21.30
2015,05,28,14,47,21.30
2015,05,28,14,48,21.20
2015,05,28,14,49,21.20
2015,05,28,14,50,21.10
2015,05,28,14,51,21.10
2015,05,28,14,52,21.00
2015,05,28,14,53,21.00
2015,05,28,14,54,20.90
2015,05,28,14,55,20.90
2015,05,28,14,56,20.80
2015,05,28,14,57,20.80
2015,05,28,14,58,20.80
2015,05,28,14,59,20.80
2015,05,28,15,00,20.80
2015,05,28,15,01,20.80
2015,05,28,15,02,20.80
2015,05,28,15,03,20.80
2015,05,28,15,04,20.80
2015,05,28,15,05,20.90
2015,05,28,15,06,20.90
2015,05,28,15,07,20.80
2015,05,28,15,08,20.80
2015,05,28,15,09,20.90
2015,05,28,15,10,20.90
2015,05,28,15,11,20.90
2015,05,28,15,12,20.90
2015,05,28,15,13,20.80
2015,05,28,15,14,20.70
2015,05,28,15,15,20.70
2015,05,28,15,16,20.70
2015,05,28,15,17,20.60
2015,05,28,15,18,20.60
2015,05,28,15,19,20.60
2015,05,28,15,20,20.70
2015,05,28,15,21,20.70
2015,05,28,15,22,20.70
2015,05,28,15,23,20.80
2015,05,28,15,24,20.80
2015,05,28,15,25,20.90
2015,05,28,15,26,20.90
2015,05,28,15,27,21.00
2015,05,28,15,28,21.10
2015,05,28,15,29,21.10
2015,05,28,15,30,21.10
2015,05,28,15,31,21.10
2015,05,28,15,32,21.20
2015,05,28,15,33,21.30
2015,05,28,15,34,21.40
2015,05,28,15,35,21.50
2015,05,28,15,36,21.60
2015,05,28,15,37,21.70
2015,05,28,15,38,21.80
2015,05,28,15,39,21.80
2015,05,28,15,40,21.80
2015,05,28,15,41,21.80
2015,05,28,15,42,21.80
2015,05,28,15,43,21.80
2015,05,28,15,44,21.80
2015,05,28,15,45,21.80
2015,05,28,15,46,21.80
2015,05,28,15,47,21.80
2015,05,28,15,48,21.80
2015,05,28,15,49,21.80
2015,05,28,15,50,21.80
2015,05,28,15,51,21.90
2015,05,28,15,52,22.00
2015,05,28,15,53,22.10
2015,05,28,15,54,22.20
2015,05,28,15,55,22.20
2015,05,28,15,56,22.20
2015,05,28,15,57,22.20
2015,05,28,15,58,22.10
2015,05,28,15,59,22.00
2015,05,28,16,00,21.90
2015,05,28,16,01,21.80
2015,05,28,16,02,21.80
2015,05,28,16,03,21.70
2015,05,28,16,04,21.60
2015,05,28,16,05,21.60
2015,05,28,16,06,21.60
2015,05,28,16,07,21.50
2015,05,28,16,08,21.60
2015,05,28,16,09,21.60
2015,05,28,16,10,21.60
2015,05,28,16,11,21.60
2015,05,28,16,12,21.50
2015,05,28,16,13,21.40
2015,05,28,16,14,21.40
2015,05,28,16,15,21.40
2015,05,28,16,16,21.30
2015,05,28,16,17,21.30
2015,05,28,16,18,21.40
2015,05,28,16,19,21.40
2015,05,28,16,20,21.40
2015,05,28,16,21,21.40
2015,05,28,16,22,21.50
2015,05,28,16,23,21.60
2015,05,28,16,24,21.60
2015,05,28,16,25,21.70
2015,05,28,16,26,21.70
2015,05,28,16,27,21.80
2015,05,28,16,28,21.80
2015,05,28,16,29,21.80
2015,05,28,16,30,21.80
2015,05,28,16,31,21.80
2015,05,28,16,32,21.80
2015,05,28,16,33,21.80
2015,05,28,16,34,21.80
2015,05,28,16,35,21.80
2015,05,28,16,36,21.80
2015,05,28,16,37,21.80
2015,05,28,16,38,21.90
2015,05,28,16,39,22.10
2015,05,28,16,40,22.20
2015,05,28,16,41,22.20
2015,05,28,16,42,22.30
2015,05,28,16,43,22.30
2015,05,28,16,44,22.40
2015,05,28,16,45,22.50
2015,05,28,16,46,22.60
2015,05,28,16,47,22.60
2015,05,28,16,48,22.70
2015,05,28,16,49,22.80
2015,05,28,16,50,22.70
2015,05,28,16,51,22.60
2015,05,28,16,52,22.50
2015,05,28,16,53,22.40
2015,05,28,16,54,22.30
2015,05,28,16,55,22.30
2015,05,28,16,56,22.30
2015,05,28,16,57,22.30
2015,05,28,16,58,22.30
2015,05,28,16,59,22.50
2015,05,28,17,00,22.60
2015,05,28,17,01,22.60
2015,05,28,17,02,22.70
2015,05,28,17,03,22.80
2015,05,28,17,04,23.00
2015,05,28,17,05,23.10
2015,05,28,17,06,23.10
2015,05,28,17,07,23.20
2015,05,28,17,08,23.20
2015,05,28,17,09,23.20
2015,05,28,17,10,23.20
2015,05,28,17,11,23.20
2015,05,28,17,12,23.10
2015,05,28,17,13,23.00
2015,05,28,17,14,22.90
2015,05,28,17,15,22.80
2015,05,28,17,16,22.70
2015,05,28,17,17,22.60
2015,05,28,17,18,22.60
2015,05,28,17,19,22.50
2015,05,28,17,20,22.40
2015,05,28,17,21,22.40
2015,05,28,17,22,22.40
2015,05,28,17,23,22.40